Location: East Guldeford
(50.9500°N, 0.7500°E)
Time: 18:32:14
(UTC+00:00)

CZ-4C R/B - Pass Details

Date: 12 May 2021
Orbit: 609 x 1392 km, 63.4° (Epoch: 15 June)

Event Time Altitude Azimuth Distance (km) Brightness Sun altitude
Rises 20:59:44 0° 315° (NW) 3,796 7.8 -10.9°
Reaches altitude 10° 21:02:14 10° 311° (NW) 2,946 6.5 -11.2°
Maximum altitude 21:09:14 58° 235° (SW) 1,417 3.4 -11.9°
Enters shadow 21:16:26 14° 161° (SSE) 3,095 4.5 -12.6°
